Tracking 20370 objects as of 19-Feb-2020
HD Live streaming from Space Station
objects crossing your sky now
Track the group of recently launched Starlink satellites

SL-14 DEB

Track SL-14 DEB now!
10-day predictions


NORAD ID: 19230
Int'l Code: 1978-100Z
Perigee: 1,680.8 km
Apogee: 1,707.5 km
Inclination: 82.5 °
Period: 120.1 minutes
Semi major axis: 8065 km
RCS: 0.0516 m2 (small)
Launch date: October 26, 1978
Source: Commonwealth of Independent States (former USSR) (CIS)
Launch site: PLESETSK MISSILE AND SPACE COMPLEX (PKMTR)

Note: This is SATELLITE DEBRIS
aabbcc
Your satellite tracking list
Your tracking list is empty




NASA's NSSDC Master Catalog

Two Line Element Set (TLE):
1 19230U 78100Z   20049.92449873 +.00000107 +00000-0 +12413-2 0  9993
2 19230 082.5308 234.9708 0016560 200.1027 317.8771 11.98623006389545
Source of the keplerian elements: AFSPC